Weather History for KCCY - September, 2013

Change the Weather History Date:

Wednesday, September 18, 2013

  Actual Average Record
Temperature  
Mean Temperature 73 °F -  
Max Temperature 84 °F 74 °F 94 °F (1955)
Min Temperature 62 °F 51 °F 35 °F (1973)
Cooling Degree Days 8    
Growing Degree Days 23 (Base 50)    
Moisture  
Dew Point 65 °F    
Average Humidity 85    
Maximum Humidity 100    
Minimum Humidity 62    
Precipitation  
Precipitation 0.00 in - - ()
Sea Level Pressure  
Sea Level Pressure 29.87 in    
Wind  
Wind Speed 12 mph (SSE)    
Max Wind Speed 15 mph    
Max Gust Speed 23 mph    
Visibility 5 miles    
Events Fog , Rain    
Averages and records for this station are not official NWS values.
T = Trace of Precipitation, MM = Missing Value Source: NWS Daily Summary

Daily Weather History Graph

Daily Weather History Graph

Search for Another Location

Airport or City:

Trip Planner

Search our weather history database for the weather conditions in past years. The results will help you decide how hot, cold, wet, or windy it might be!

Date:

Astronomy

Sep. 18, 2013 Rise Set
Actual Time 6:53 AM CDT 7:14 PM CDT
Civil Twilight 6:25 AM CDT 7:42 PM CDT
Nautical Twilight 5:51 AM CDT 8:16 PM CDT
Astronomical Twilight 5:17 AM CDT 8:50 PM CDT
Moon 6:37 PM CDT (9/18) 5:56 AM CDT (9/18)
Length of Visible Light 13h 17m
Length of Day
12h 20m
Waxing Gibbous, 99% of the Moon is Illuminated
Sep 18
Waxing Gibbous
Sep 19
Full
Sep 26
Last Quarter
Oct 4
New
Oct 11
First Quarter

Hourly Weather History & Observations

Time (CDT) Temp. Heat Index Dew Point Humidity Pressure Visibility Wind Dir Wind Speed Gust Speed Precip Events Conditions
12:15 AM 62.6 °F - 60.8 °F 94% 30.02 in 2.5 mi South 12.7 mph 19.6 mph N/A   Overcast
12:35 AM 62.6 °F - 60.8 °F 94% 30.02 in 1.5 mi South 13.8 mph 19.6 mph N/A   Overcast
12:55 AM 62.6 °F - 60.8 °F 94% 30.01 in 1.2 mi South 15.0 mph - N/A   Overcast
1:15 AM 62.6 °F - 60.8 °F 94% 30.00 in 1.5 mi South 11.5 mph 18.4 mph N/A   Overcast
1:35 AM 62.6 °F - 60.8 °F 94% 30.00 in 3.0 mi South 12.7 mph - N/A   Overcast
1:55 AM 62.6 °F - 60.8 °F 94% 29.99 in 2.0 mi South 15.0 mph - N/A   Overcast
2:15 AM 62.6 °F - 60.8 °F 94% 29.98 in 1.0 mi SSE 12.7 mph - N/A   Overcast
2:35 AM 62.6 °F - 60.8 °F 94% 29.98 in 1.0 mi SSE 11.5 mph 20.7 mph N/A   Overcast
2:55 AM 62.6 °F - 60.8 °F 94% 29.97 in 1.0 mi South 13.8 mph 19.6 mph N/A   Overcast
3:15 AM 62.6 °F - 60.8 °F 94% 29.96 in 1.2 mi South 12.7 mph 20.7 mph N/A   Overcast
3:35 AM 62.6 °F - 60.8 °F 94% 29.95 in 1.2 mi South 12.7 mph 20.7 mph N/A   Overcast
3:55 AM 62.6 °F - 60.8 °F 94% 29.95 in 1.0 mi South 13.8 mph 19.6 mph N/A   Overcast
4:15 AM 62.6 °F - 60.8 °F 94% 29.94 in 0.8 mi South 15.0 mph - N/A   Overcast
4:35 AM 62.6 °F - 60.8 °F 94% 29.94 in 0.8 mi South 15.0 mph - N/A   Overcast
4:55 AM 62.6 °F - 62.6 °F 100% 29.93 in 1.8 mi South 12.7 mph 18.4 mph N/A   Overcast
5:15 AM 62.6 °F - 62.6 °F 100% 29.94 in 2.0 mi South 12.7 mph - N/A   Overcast
5:35 AM 62.6 °F - 62.6 °F 100% 29.93 in 2.0 mi South 11.5 mph 17.3 mph N/A   Overcast
5:55 AM 64.4 °F - 62.6 °F 94% 29.93 in 2.5 mi South 12.7 mph - N/A   Overcast
6:15 AM 64.4 °F - 62.6 °F 94% 29.94 in 2.5 mi South 11.5 mph 18.4 mph N/A   Overcast
6:35 AM 64.4 °F - 62.6 °F 94% 29.93 in 2.0 mi SSE 11.5 mph - N/A   Overcast
6:55 AM 64.4 °F - 62.6 °F 94% 29.92 in 2.5 mi SSE 11.5 mph 17.3 mph N/A   Overcast
7:15 AM 64.4 °F - 62.6 °F 94% 29.93 in 1.0 mi South 11.5 mph - N/A Rain Light Rain
7:35 AM 64.4 °F - 62.6 °F 94% 29.93 in 1.5 mi SSE 11.5 mph - N/A   Overcast
7:55 AM 64.4 °F - 62.6 °F 94% 29.92 in 1.8 mi SSE 9.2 mph - N/A   Overcast
8:15 AM 64.4 °F - 62.6 °F 94% 29.92 in 1.2 mi SSW 8.1 mph - N/A   Overcast
8:35 AM 64.4 °F - 62.6 °F 94% 29.90 in 1.5 mi SSW 10.4 mph - N/A   Overcast
8:55 AM 64.4 °F - 62.6 °F 94% 29.89 in 1.8 mi South 12.7 mph - N/A   Overcast
9:15 AM 64.4 °F - 62.6 °F 94% 29.91 in 2.0 mi SSE 15.0 mph - N/A   Overcast
9:35 AM 64.4 °F - 62.6 °F 94% 29.91 in 2.0 mi SSE 6.9 mph 17.3 mph N/A   Overcast
9:55 AM 64.4 °F - 62.6 °F 94% 29.89 in 1.5 mi SSE 13.8 mph - N/A   Overcast
10:15 AM 64.4 °F - 62.6 °F 94% 29.89 in 1.5 mi SSE 12.7 mph 19.6 mph N/A   Overcast
10:35 AM 64.4 °F - 62.6 °F 94% 29.89 in 1.5 mi SSE 11.5 mph 19.6 mph N/A   Overcast
10:55 AM 64.4 °F - 64.4 °F 100% 29.90 in 1.5 mi SSE 12.7 mph - N/A   Overcast
11:15 AM 64.4 °F - 64.4 °F 100% 29.89 in 1.5 mi SSE 11.5 mph - N/A   Overcast
11:35 AM 66.2 °F - 64.4 °F 94% 29.89 in 1.5 mi SSE 9.2 mph - N/A   Overcast
11:55 AM 66.2 °F - 64.4 °F 94% 29.89 in 1.0 mi SSE 11.5 mph - N/A   Overcast
12:15 PM 64.4 °F - 64.4 °F 100% 29.88 in 0.5 mi SE 11.5 mph 17.3 mph N/A Fog Fog
12:35 PM 64.4 °F - 62.6 °F 94% 29.88 in 0.2 mi SE 12.7 mph - N/A Fog Fog
12:55 PM 64.4 °F - 64.4 °F 100% 29.88 in 0.2 mi SE 13.8 mph - N/A Fog Fog
1:15 PM 66.2 °F - 64.4 °F 94% 29.87 in 0.2 mi SE 12.7 mph - N/A Fog Fog
1:35 PM 66.2 °F - 64.4 °F 94% 29.86 in 0.8 mi SSE 10.4 mph 18.4 mph N/A   Overcast
1:55 PM 68.0 °F - 66.2 °F 94% 29.85 in 1.8 mi SSE 13.8 mph - N/A   Overcast
2:15 PM 69.8 °F - 66.2 °F 88% 29.85 in 2.5 mi SSE 12.7 mph 18.4 mph N/A   Overcast
2:35 PM 73.4 °F - 68.0 °F 83% 29.83 in 3.0 mi SSE 13.8 mph 20.7 mph N/A   Haze
2:55 PM 75.2 °F - 69.8 °F 83% 29.82 in 5.0 mi SSE 12.7 mph 19.6 mph N/A   Haze
3:15 PM 78.8 °F - 69.8 °F 74% 29.81 in 7.0 mi SSE 15.0 mph 23.0 mph N/A   Scattered Clouds
3:35 PM 78.8 °F - 69.8 °F 74% 29.80 in 8.0 mi SSE 15.0 mph 20.7 mph N/A   Partly Cloudy
3:55 PM 80.6 °F 84.6 °F 71.6 °F 74% 29.80 in - SSE 15.0 mph - N/A   Clear
4:15 PM 82.4 °F 87.2 °F 71.6 °F 70% 29.79 in 10.0 mi SSE 12.7 mph 21.9 mph N/A   Clear
4:35 PM 82.4 °F 87.2 °F 71.6 °F 70% 29.78 in 10.0 mi SSE 12.7 mph 18.4 mph N/A   Clear
4:55 PM 84.2 °F 89.6 °F 71.6 °F 66% 29.78 in 10.0 mi SSE 11.5 mph 19.6 mph N/A   Clear
5:15 PM 84.2 °F 88.4 °F 69.8 °F 62% 29.78 in 10.0 mi SSE 9.2 mph 19.6 mph N/A   Clear
5:35 PM 84.2 °F 88.4 °F 69.8 °F 62% 29.78 in 10.0 mi South 12.7 mph 20.7 mph N/A   Clear
5:55 PM 84.2 °F 88.4 °F 69.8 °F 62% 29.78 in 10.0 mi South 12.7 mph - N/A   Clear
6:15 PM 84.2 °F 88.4 °F 69.8 °F 62% 29.78 in 10.0 mi South 9.2 mph 16.1 mph N/A   Clear
6:35 PM 82.4 °F 86.3 °F 69.8 °F 66% 29.78 in 10.0 mi South 8.1 mph - N/A   Clear
6:55 PM 80.6 °F 83.2 °F 68.0 °F 65% 29.78 in 10.0 mi South 9.2 mph - N/A   Clear
7:15 PM 78.8 °F - 68.0 °F 69% 29.78 in 10.0 mi SSE 8.1 mph - N/A   Clear
7:35 PM 78.8 °F - 68.0 °F 69% 29.79 in 10.0 mi SSE 8.1 mph - N/A   Clear
7:55 PM 78.8 °F - 68.0 °F 69% 29.80 in 10.0 mi South 11.5 mph - N/A   Mostly Cloudy
8:15 PM 78.8 °F - 68.0 °F 69% 29.80 in 10.0 mi South 11.5 mph 18.4 mph N/A   Overcast
8:35 PM 78.8 °F - 68.0 °F 69% 29.80 in 10.0 mi South 12.7 mph 19.6 mph N/A   Mostly Cloudy
8:55 PM 78.8 °F - 68.0 °F 69% 29.80 in 10.0 mi South 11.5 mph - N/A   Overcast
9:15 PM 78.8 °F - 68.0 °F 69% 29.80 in 10.0 mi South 11.5 mph - N/A   Mostly Cloudy
9:35 PM 78.8 °F - 68.0 °F 69% 29.80 in 10.0 mi SSE 12.7 mph - N/A   Mostly Cloudy
9:55 PM 77.0 °F - 68.0 °F 74% 29.81 in 10.0 mi SSE 12.7 mph - N/A   Mostly Cloudy
10:15 PM 77.0 °F - 68.0 °F 74% 29.81 in 10.0 mi SSE 11.5 mph - N/A   Mostly Cloudy
10:35 PM 77.0 °F - 68.0 °F 74% 29.81 in 10.0 mi SSE 13.8 mph - N/A   Overcast
10:55 PM 77.0 °F - 68.0 °F 74% 29.81 in 10.0 mi SSE 11.5 mph 18.4 mph N/A   Overcast
11:15 PM 75.2 °F - 68.0 °F 78% 29.81 in 10.0 mi South 11.5 mph - N/A   Mostly Cloudy
11:35 PM 75.2 °F - 68.0 °F 78% 29.80 in 10.0 mi SSE 12.7 mph - N/A   Mostly Cloudy
11:55 PM 75.2 °F - 68.0 °F 78% 29.80 in 10.0 mi South 12.7 mph 18.4 mph N/A   Scattered Clouds